Cloud_Cover
76 76 80 88 80 76 68 68 64 48 56 76 76 76 76 68 76 80 80 88 88 92 92 88 88 88 88 88 76 68 56 64 68 80 80 88 88 88 92 92 92 92 92 92 92 92 92 92 92 92 92 92 92 92 92 92 92 92 92 92 92 92 92 92 92 100 100 92 92 92 92 92 92 92 92 92 92 92 88 88 88 80 80 80 80 80
80 80 80 80 76 64 48 64 68 64 48 64 68 76 76 68 68 68 76 76 88 88 88 88 88 88 88 80 80 76 68 56 76 92 92 92 92 92 92 92 92 92 100 92 92 92 92 92 92 92 92 92 92 92 88 92 92 92 92 92 92 92 92 92 92 92 92 92 92 92 92 92 92 92 92 92 92 92 88 88 88 88 80 88 80 76
88 88 80 88 88 76 64 76 80 76 56 56 64 76 76 76 68 68 68 68 80 88 88 88 88 88 80 80 80 76 64 80 92 92 92 92 92 92 92 92 92 92 92 92 92 92 92 92 92 92 92 92 92 88 80 88 92 92 92 92 92 92 92 92 92 92 92 92 92 92 92 92 92 92 92 92 92 92 92 88 88 88 88 92 88 76
88 88 80 80 88 88 80 76 76 76 68 64 68 76 76 80 80 80 88 80 88 88 80 80 88 88 88 88 80 80 80 92 92 92 92 92 92 92 92 92 92 92 92 92 92 92 92 92 92 92 92 92 92 88 80 88 88 88 88 88 92 92 92 92 92 92 92 92 92 92 92 92 92 92 92 92 92 92 92 88 88 92 92 92 92 88
76 76 56 68 76 76 68 68 76 76 76 76 80 92 88 92 92 92 80 80 80 76 64 68 80 88 88 88 88 92 92 92 92 92 92 92 92 92 92 92 92 92 92 92 92 92 92 92 92 92 92 92 92 92 88 88 88 80 76 68 80 92 92 92 92 92 92 92 92 92 92 92 92 92 92 92 92 92 92 92 92 92 92 92 92 92
64 76 64 56 48 48 56 80 88 88 88 92 88 88 92 92 92 92 88 88 80 68 64 64 68 80 80 88 92 92 92 88 88 92 92 92 92 92 92 92 92 92 92 92 92 92 92 92 92 92 92 92 92 92 88 80 80 76 68 64 76 92 92 92 92 92 92 92 92 92 92 92 92 92 92 92 92 92 92 92 92 92 92 92 92 92
80 92 88 76 56 48 68 80 88 88 88 88 80 80 88 88 88 88 88 80 80 80 68 68 68 76 88 92 92 92 92 88 92 92 92 92 92 92 92 92 92 92 92 92 92 92 92 92 92 92 92 92 92 92 88 80 76 76 80 80 88 92 92 92 92 92 92 92 92 92 92 92 92 92 88 80 80 80 80 88 88 92 92 92 92 92
92 92 92 92 80 68 88 88 88 88 88 76 80 88 88 88 88 88 88 80 80 80 68 80 80 80 92 92 92 92 92 92 92 92 92 92 92 92 92 92 92 92 92 92 92 92 92 92 92 92 92 92 92 92 80 80 80 80 92 92 92 92 92 92 92 92 92 92 92 92 92 88 80 80 76 68 68 76 80 80 88 88 88 88 88 88
92 92 92 92 92 88 88 76 76 76 92 80 88 92 92 88 88 88 92 88 88 80 68 80 80 76 76 88 92 92 92 92 92 92 92 92 92 92 92 92 92 92 92 92 92 92 92 92 92 92 92 92 92 88 88 88 88 88 92 92 92 92 92 92 92 92 92 92 92 92 92 76 76 76 68 76 76 80 88 88 92 88 80 80 80 80
92 92 92 92 92 92 88 64 56 64 88 92 92 92 88 88 88 88 80 68 64 64 64 68 76 76 64 64 80 92 92 92 92 92 92 80 88 92 92 92 92 92 92 92 92 92 92 92 92 92 92 92 88 88 92 88 88 92 92 92 92 92 92 92 92 92 92 92 92 92 92 80 80 88 80 88 88 88 92 92 92 88 76 76 76 80
92 92 92 92 92 92 92 80 64 64 88 88 92 92 92 88 88 88 88 48 36 36 44 64 64 56 56 56 76 92 92 92 92 92 92 88 88 92 92 92 92 92 92 92 92 92 92 92 92 92 92 92 92 92 92 92 92 92 92 92 92 92 92 92 92 92 92 92 92 92 92 88 92 92 92 92 88 92 92 92 88 80 76 76 76 76
92 92 92 92 92 92 92 92 88 88 88 92 92 88 88 88 88 88 88 68 64 64 48 44 44 44 44 76 88 92 92 92 92 92 92 92 92 92 92 92 92 92 92 92 92 92 92 92 92 92 92 92 92 92 92 92 92 92 92 92 92 92 92 92 92 92 92 92 92 92 92 92 92 92 92 92 88 88 92 88 88 80 76 80 76 64
92 92 92 92 92 92 92 92 92 92 92 88 88 88 88 88 80 76 88 64 48 56 80 48 36 36 24 80 92 92 92 92 92 92 92 92 92 92 92 92 92 92 92 92 92 92 92 92 92 92 92 92 92 92 92 92 92 92 92 92 92 92 92 92 92 92 92 92 92 92 92 92 92 92 92 88 88 88 88 88 80 80 80 80 68 48
88 88 88 88 92 92 88 88 88 88 88 56 44 32 32 36 64 88 88 76 76 80 92 80 56 36 48 88 92 92 80 92 92 92 92 92 92 92 92 92 92 92 92 92 92 92 92 92 92 92 92 92 92 92 92 92 92 92 92 92 92 92 92 92 92 92 92 92 92 92 92 92 92 88 88 88 88 88 88 80 76 76 80 80 68 56
88 88 88 88 88 88 88 88 88 80 56 48 64 76 76 80 88 92 92 88 88 88 88 88 64 48 56 88 92 92 92 92 92 92 92 92 92 92 92 92 92 92 92 92 92 92 92 92 92 92 92 92 92 92 92 92 92 92 92 92 92 92 92 92 92 92 92 92 92 88 88 88 88 88 88 80 80 80 80 76 76 76 68 64 56 44
88 88 88 88 88 88 76 88 80 56 20 68 88 88 88 92 88 88 92 88 88 88 92 88 88 68 20 76 92 92 92 92 92 92 92 92 92 92 92 92 92 92 92 92 92 92 92 92 92 92 92 92 92 92 92 92 92 92 92 92 92 92 92 92 92 88 80 80 80 80 76 80 80 80 80 76 76 80 76 80 80 76 56 48 44 36
88 88 88 88 88 88 88 88 56 24 20 76 88 88 88 88 92 92 88 88 88 88 92 92 88 88 80 36 44 76 92 92 92 92 92 92 92 92 92 92 92 92 92 92 92 92 92 88 92 92 92 92 92 92 92 92 92 92 92 92 92 92 92 92 88 88 88 80 80 80 80 80 80 80 80 76 76 80 80 80 80 68 48 48 36 32
88 88 88 88 88 80 68 64 56 44 32 76 88 88 88 80 88 92 92 92 92 88 88 92 88 88 88 44 32 44 88 68 76 92 92 92 92 92 92 92 92 92 92 92 92 92 88 92 92 92 92 92 92 92 92 92 92 92 88 88 88 88 88 88 92 92 88 88 88 88 92 88 88 92 88 80 88 92 92 80 68 56 44 36 32 24
88 80 88 88 88 88 88 88 88 88 88 88 88 88 88 88 92 92 92 92 92 92 88 88 88 76 48 24 12 20 76 80 88 88 92 92 92 92 92 92 92 92 92 92 92 92 92 92 92 92 92 92 92 92 92 92 88 88 88 88 88 80 68 80 88 88 88 88 92 92 92 92 92 92 92 92 92 92 92 76 64 56 48 36 24 20
88 88 88 88 88 88 88 88 48 36 88 56 68 88 88 88 92 92 92 92 92 92 92 92 88 68 36 32 24 36 92 92 92 88 92 92 92 92 92 92 92 92 92 92 92 92 92 92 92 92 92 92 92 92 92 92 92 80 80 68 68 80 80 88 88 80 80 88 88 92 88 92 88 88 88 88 80 80 76 64 48 44 44 24 20 24
88 64 8 68 92 88 88 24 0 20 76 56 68 92 88 88 88 92 92 92 92 92 92 92 68 36 24 36 32 32 64 88 92 92 92 92 92 92 92 92 92 92 92 92 92 92 92 92 92 92 92 92 92 92 92 92 92 92 88 80 76 64 68 80 88 88 80 80 80 76 76 80 76 76 76 76 68 64 56 36 24 24 20 24 32 44
56 12 8 68 92 76 24 24 44 68 68 88 92 92 88 88 88 80 80 88 88 88 80 80 64 44 68 64 48 36 32 80 92 92 88 92 88 88 92 92 92 92 92 92 92 92 92 92 92 92 92 92 92 92 92 92 92 92 88 88 76 68 68 88 88 88 76 68 68 68 64 68 68 68 68 68 56 44 44 24 20 20 20 44 56 64
88 64 12 68 88 92 92 92 92 92 92 88 80 80 80 80 68 56 48 68 68 64 56 56 56 64 92 88 80 76 88 92 92 92 92 88 80 76 76 88 92 92 92 92 92 92 92 92 92 92 92 92 92 92 92 92 92 92 88 88 76 76 88 80 80 76 68 64 64 64 64 68 64 56 48 48 36 24 20 20 24 32 44 68 80 76
76 48 36 56 76 92 88 92 92 92 92 68 48 36 36 56 80 92 92 88 88 92 92 92 92 92 92 92 92 92 88 92 92 92 92 88 64 44 64 88 92 92 88 92 92 92 92 92 92 92 92 92 92 92 92 92 92 92 88 80 80 80 80 76 76 68 64 56 56 48 56 64 64 56 36 32 24 24 20 20 44 68 76 88 92 88
92 92 88 76 80 80 68 88 92 92 92 92 80 68 76 88 92 92 92 92 92 92 92 92 92 92 88 92 92 92 76 92 92 92 92 92 92 80 48 76 88 92 88 88 92 92 92 92 92 92 92 92 92 92 92 92 92 88 80 76 76 76 76 68 64 64 48 48 44 44 48 48 48 44 32 32 44 56 56 64 76 88 88 92 92 92
92 88 76 76 68 76 92 92 92 92 92 92 92 88 92 92 92 92 92 92 92 92 92 92 92 88 88 92 92 88 76 92 92 92 88 92 92 88 68 80 88 92 88 80 88 92 92 92 92 92 92 92 92 92 92 92 92 88 80 76 68 68 68 64 64 56 48 44 44 36 36 36 36 44 44 48 68 80 80 88 92 92 92 92 92 88
92 92 92 92 92 92 92 92 92 92 92 92 92 92 92 92 92 92 92 92 92 92 92 92 92 88 88 88 88 80 64 88 88 88 80 92 92 80 68 76 88 92 92 88 92 92 92 92 92 92 92 92 92 92 92 92 88 80 80 76 68 68 64 56 56 48 44 36 36 36 32 32 36 44 68 76 80 92 92 92 92 92 92 92 88 76
92 92 92 92 92 92 92 92 92 92 92 92 92 92 92 92 92 88 68 80 88 92 92 92 88 88 80 68 64 64 76 80 88 88 88 92 92 80 56 68 88 92 92 92 92 92 92 92 92 92 92 92 92 92 92 92 88 88 80 76 68 64 56 56 48 44 44 36 36 32 32 32 36 56 80 88 88 92 92 92 92 92 92 92 80 68
92 92 92 92 92 92 92 92 92 92 92 92 92 92 92 92 92 76 32 56 80 92 92 92 92 88 80 64 56 64 92 80 80 92 92 92 92 80 48 80 88 92 92 92 92 92 92 92 92 92 92 92 92 92 92 88 88 88 80 76 68 64 56 48 48 44 36 44 36 36 36 36 44 64 92 92 92 92 92 92 92 92 92 92 92 88
92 92 92 92 92 92 92 92 92 92 92 92 92 92 92 92 92 80 56 64 76 92 92 92 92 92 92 88 88 88 88 68 68 80 92 92 92 88 68 88 88 88 80 92 92 92 92 80 80 92 92 92 92 88 92 80 80 76 76 68 64 56 56 48 44 44 44 44 44 44 44 48 64 76 92 92 92 92 92 88 88 88 92 92 92 92
92 92 92 92 92 92 92 92 92 92 92 92 92 92 92 92 92 92 92 92 92 92 92 92 92 88 80 88 92 88 64 56 56 68 92 92 92 88 76 80 80 88 88 92 92 80 80 68 68 80 92 92 88 88 80 80 76 76 68 64 56 56 48 48 48 44 44 44 44 44 48 48 64 80 92 92 92 88 80 88 88 88 92 80 76 76
92 92 92 92 92 92 92 92 92 92 92 92 92 92 92 92 92 92 92 92 92 92 92 92 92 88 68 68 68 64 56 76 68 68 92 92 92 80 64 76 88 88 92 92 88 76 64 68 76 88 92 92 88 88 80 76 76 76 68 68 64 56 56 56 48 44 44 44 44 44 44 56 76 88 92 92 92 88 80 88 92 88 80 80 68 48
92 92 92 92 92 92 92 92 92 92 92 92 92 92 92 92 92 92 92 92 88 88 92 92 92 92 80 68 56 56 68 80 88 88 92 92 92 88 80 88 92 92 92 92 88 80 68 68 80 92 92 92 92 88 80 76 76 76 68 64 56 56 64 56 48 48 44 44 44 44 36 68 88 92 92 92 92 92 92 80 76 80 88 80 76 68
92 92 92 92 92 92 92 92 92 92 92 92 92 92 92 92 92 92 92 92 88 88 92 92 92 92 92 80 76 68 76 80 88 92 92 92 92 92 80 88 92 92 92 92 92 92 88 76 76 88 92 92 92 92 88 80 76 68 64 56 56 64 68 56 48 44 36 36 44 44 44 80 92 92 92 92 92 88 80 68 68 76 92 88 80 80
92 92 92 92 92 92 92 92 92 92 92 88 88 88 92 92 92 92 92 92 92 92 92 92 92 92 92 88 80 76 88 88 92 92 92 92 92 92 88 88 92 92 92 92 92 92 92 76 68 76 92 92 92 88 80 80 76 68 64 68 68 68 64 48 36 36 36 44 56 68 80 92 92 92 88 80 68 64 76 80 80 80 88 88 88 80
92 92 92 92 92 92 92 92 92 92 88 88 88 80 88 92 92 92 92 88 88 88 92 92 92 92 92 92 92 92 92 92 92 92 92 92 92 92 92 92 92 92 92 92 92 92 80 76 68 76 92 92 88 76 76 76 76 76 68 68 68 68 64 44 36 36 44 48 64 80 92 92 92 92 92 88 80 80 80 88 80 80 92 88 80 76
88 88 88 88 88 92 92 92 92 88 68 68 76 80 88 92 92 92 92 80 88 92 92 92 92 92 92 92 92 92 92 92 92 92 92 92 92 92 92 92 92 92 92 92 92 92 92 80 80 80 80 80 80 76 76 68 64 64 76 76 68 56 56 44 36 36 44 56 64 68 76 88 92 80 68 68 80 92 88 92 88 80 88 88 88 88
88 88 92 88 92 92 92 88 80 76 80 80 80 88 92 92 92 92 92 92 92 92 92 92 92 92 92 92 92 92 92 92 92 92 92 92 92 92 92 92 92 88 92 92 92 92 92 92 88 88 76 76 76 76 76 64 64 68 76 68 56 36 44 44 48 48 56 48 48 48 48 56 76 88 76 68 68 76 76 76 76 76 80 92 92 92
88 88 88 88 88 88 92 88 80 80 92 92 92 92 92 92 92 92 92 92 92 92 92 92 92 92 92 92 92 92 92 92 92 92 92 92 92 92 92 92 88 80 92 92 92 92 92 92 80 68 68 68 76 80 76 76 68 68 76 64 48 44 56 64 64 56 64 48 36 32 24 68 88 80 56 68 76 76 76 76 76 76 88 88 92 92
88 88 88 68 44 36 48 76 88 92 92 92 92 92 92 92 92 92 92 92 92 92 92 92 92 92 92 92 92 92 92 92 92 92 92 92 92 92 92 92 92 92 92 92 92 92 92 88 80 76 76 80 80 80 76 76 68 64 64 48 56 56 44 44 56 64 56 32 20 12 12 68 88 80 76 76 80 80 76 76 76 76 76 80 88 80
88 88 68 48 48 56 64 80 92 92 92 92 92 92 92 92 92 92 92 92 92 92 92 92 92 92 92 92 92 92 92 92 92 92 92 92 92 92 92 92 92 92 92 92 92 92 92 92 92 88 80 80 88 88 76 76 64 56 56 56 56 56 56 64 56 56 56 32 20 20 32 76 92 88 80 88 80 80 76 80 80 76 76 76 76 76
88 76 32 32 48 64 56 88 92 92 92 92 92 92 92 92 92 92 92 92 92 92 92 92 92 92 92 92 92 92 92 92 92 92 92 92 92 92 92 88 88 88 92 92 92 92 92 92 88 80 80 88 88 92 92 92 80 64 48 68 76 68 76 68 64 48 36 32 32 44 64 88 92 92 88 88 88 80 80 80 80 80 80 80 76 76
68 44 24 76 88 92 92 92 92 92 92 92 88 92 92 92 92 92 92 92 92 92 92 92 92 92 92 92 92 92 92 92 92 92 92 92 92 92 92 88 80 76 88 88 92 92 88 92 92 92 88 88 92 88 80 80 68 64 76 76 80 92 92 92 76 64 56 32 44 64 76 88 92 92 92 92 92 88 88 88 80 80 68 76 76 76
32 44 48 80 92 92 92 92 92 92 92 92 92 92 92 92 92 92 92 92 92 92 92 92 92 92 92 92 92 92 92 92 92 92 92 92 92 92 92 88 80 80 88 92 92 92 92 92 92 92 92 92 92 88 76 88 88 88 88 88 88 92 92 92 80 76 88 56 56 68 80 88 92 92 92 92 92 88 88 80 76 76 64 68 68 68
76 76 76 88 92 92 92 88 88 92 92 92 92 92 92 92 92 92 92 92 92 92 92 92 92 92 92 88 88 92 92 92 92 92 92 92 92 92 92 88 88 88 88 92 92 88 92 92 88 88 80 92 92 88 80 88 88 88 92 92 92 92 88 68 64 64 88 76 80 92 92 92 92 92 92 92 88 88 80 76 76 68 64 64 68 68
92 92 92 92 92 92 88 88 88 92 92 92 92 92 92 92 92 92 92 92 92 92 92 92 92 92 80 76 80 92 92 92 92 92 92 92 92 92 92 92 88 88 88 92 92 92 92 80 80 80 76 88 88 80 88 88 88 92 92 92 88 80 68 64 68 68 68 80 88 80 80 92 92 92 92 88 80 80 76 68 64 64 64 64 64 68
92 92 92 92 92 92 92 88 92 92 92 92 92 92 92 92 92 92 92 92 92 92 92 92 92 92 88 76 76 80 92 92 92 92 92 92 92 92 92 88 88 88 92 92 92 92 88 80 88 88 80 80 80 88 80 88 92 88 80 80 80 80 80 68 68 76 76 80 80 88 88 92 92 92 88 80 80 76 68 64 64 64 64 64 64 64
92 92 92 92 92 92 92 92 92 92 92 92 92 92 92 92 92 92 92 92 92 92 92 92 92 88 88 76 80 92 92 92 92 92 92 92 92 92 92 92 92 92 92 92 92 92 92 88 88 88 88 88 88 92 92 88 88 80 68 76 80 88 88 80 80 80 88 88 88 80 88 92 88 88 80 80 80 76 68 64 64 64 56 64 68 68
92 92 92 88 92 92 92 92 92 92 92 92 92 92 92 92 92 92 92 92 92 92 80 88 88 88 88 88 88 92 92 92 92 92 92 92 92 92 92 88 88 88 88 92 80 80 88 88 88 80 80 88 92 92 92 88 76 64 64 68 80 92 88 80 80 88 88 88 80 80 80 80 76 76 76 80 80 76 64 64 56 56 64 64 68 68
92 92 92 92 92 92 92 92 92 92 92 92 92 92 92 92 92 92 92 92 92 92 80 80 88 88 88 80 88 92 92 92 92 92 92 92 92 92 88 88 80 80 76 80 76 68 76 80 88 80 92 92 92 92 92 80 76 68 76 76 88 92 92 92 88 88 88 88 80 76 80 76 76 76 80 80 76 68 64 64 64 64 68 64 64 68
92 92 92 92 92 92 92 92 92 92 92 92 92 92 92 92 92 92 92 92 92 92 88 80 80 88 80 80 88 92 92 92 92 92 92 92 92 92 76 80 80 80 76 68 68 68 76 76 88 92 92 88 80 80 92 88 88 88 92 92 92 92 92 88 88 88 88 88 76 76 76 76 76 76 80 80 76 68 64 68 68 64 64 64 64 64